Home > Weather > Muttenz > Past weeks

Flag for Switzerland Past Weather in Muttenz, Basel-Land, Switzerland — Yesterday and Last 2 Weeks

Now
66 °F

Passing clouds.


Feels Like: 66 °F
Forecast: 58 / 78 °F
Wind: 5 mph from Southwest

Location: Bale-Mulhouse

Current Time: Jun 30, 2016 at 11:17:17 PM

Latest Report: Jun 30, 2016 at 10:30 PM


Visibility: N/A

Pressure: 30.07 "Hg

Humidity: 83%

Dew Point: 61 °F

Location of MuttenzLocation

Past Weather in Muttenz — Graph

°F

Muttenz Temperature Yesterday

Maximum temperature yesterday: 79 °F (at 3:30 PM)
Minimum temperature yesterday: 63 °F (at 1:00 AM)
Average temperature yesterday: 70 °F

High & Low Weather Summary for the Past Weeks

 TemperatureHumidityPressure
High93 °F (Jun 23, 5:00 PM)100% (Jun 16, 5:00 AM)30.27 "Hg (Jun 16, 5:00 AM)
Low46 °F (Jun 20, 5:30 AM)38% (Jun 23, 2:30 PM)29.62 "Hg (Jun 15, 10:00 PM)
Average66 °F76%30.06 "Hg
* Reported Jun 15 10:00 PM — Jun 30 10:00 PM, Muttenz, Weather by CustomWeather, © 2016

Note: Actual official high and low records may vary slightly from our data, if they occured in-between our weather recording intervals... More about our weather records

Advertising

Muttenz Weather History for the Previous 24 Hours

Scroll right to see more
 ConditionsComfort  
Time TempWeatherWind HumidityBarometerVisibility
10:00 PM
Thu, Jun 30
66 °FScattered clouds.2 mph83%30.04 "HgN/A
9:30 PM70 °FScattered clouds.2 mph73%30.04 "HgN/A
9:00 PM73 °FPassing clouds.3 mph61%30.04 "HgN/A
8:30 PM75 °FPassing clouds.5 mph57%30.01 "HgN/A
8:00 PM75 °FPassing clouds.8 mph57%30.01 "HgN/A
7:30 PM77 °FScattered clouds.10 mph51%30.01 "HgN/A
7:13 PM77 °FScattered clouds.8 mph54%30.01 "HgN/A
6:30 PM77 °FScattered clouds.8 mph54%29.98 "HgN/A
6:00 PM75 °FScattered clouds.9 mph57%30.01 "HgN/A
5:30 PM77 °FScattered clouds.8 mph54%30.01 "HgN/A
5:00 PM75 °FPartly sunny.6 mph57%30.01 "HgN/A
4:30 PM79 °FScattered clouds.9 mph51%30.01 "HgN/A
4:00 PM77 °FScattered clouds.10 mph51%30.01 "HgN/A
3:30 PM75 °FBroken clouds.7 mph57%30.01 "HgN/A
3:00 PM75 °FBroken clouds.7 mph54%30.01 "HgN/A
2:30 PM73 °FBroken clouds.5 mph61%30.01 "HgN/A
2:00 PM73 °FBroken clouds.3 mph61%30.04 "HgN/A
1:30 PM72 °FPartly sunny.2 mph69%30.04 "HgN/A
1:00 PM72 °FPartly sunny.5 mph69%30.04 "HgN/A
12:30 PM70 °FBroken clouds.5 mph73%30.04 "HgN/A
12:00 PM70 °FBroken clouds.3 mph73%30.04 "HgN/A
11:30 AM68 °FPartly sunny.2 mph73%30.04 "HgN/A
11:00 AM70 °FSprinkles. Broken clouds.2 mph73%30.04 "HgN/A
10:30 AM68 °FBroken clouds.2 mph78%30.04 "HgN/A
10:00 AM68 °FBroken clouds.2 mph73%30.04 "HgN/A
9:30 AM66 °FPartly sunny.1 mph78%30.04 "HgN/A
9:00 AM64 °FPartly sunny.No wind83%30.04 "HgN/A
8:30 AM63 °FPartly sunny.1 mph88%30.04 "HgN/A
8:00 AM63 °FSprinkles. Partly sunny.1 mph88%30.01 "HgN/A
7:30 AM63 °FPartly sunny.3 mph88%30.01 "HgN/A
7:00 AM64 °FLight rain. More clouds than sun.6 mph83%30.01 "HgN/A
6:30 AM64 °FOvercast.3 mph88%30.01 "HgN/A
6:00 AM64 °FOvercast.2 mph83%30.01 "HgN/A
5:30 AM64 °FPassing clouds.2 mph83%30.01 "HgN/A
5:00 AM64 °FPassing clouds.2 mph83%30.01 "HgN/A
4:30 AM64 °FSprinkles. Partly cloudy.3 mph88%30.01 "HgN/A
4:00 AM64 °FMostly cloudy.2 mph88%29.98 "HgN/A
3:30 AM64 °FPassing clouds.1 mph88%29.98 "HgN/A
3:00 AM64 °FMostly cloudy.5 mph94%29.98 "HgN/A
2:30 AM64 °FPassing clouds.2 mph94%29.98 "HgN/A
2:00 AM64 °FPassing clouds.2 mph94%29.95 "HgN/A
1:30 AM64 °FMild.5 mph94%29.95 "HgN/A
1:00 AM64 °FPassing clouds.2 mph88%29.95 "HgN/A
12:30 AM64 °FMild.5 mph88%29.95 "HgN/A
12:00 AM66 °FThunderstorms. Partly cloudy.2 mph83%29.98 "HgN/A
11:30 PM
Wed, Jun 29
64 °FPassing clouds.No wind88%29.95 "HgN/A
11:00 PM64 °FClear.3 mph88%29.95 "Hg10 mi
Weather by CustomWeather, © 2016

See weather overviewHow to use our weather pages